Martinsburg, WV

5:25 PM EDT on September 26, 2016 (GMT -0400)
Eastern W Va Regional-Shepherd

Weather History for KMRB - August, 2014

Change the Weather History Date:

Wednesday, August 27, 2014

  Actual Average Record
Temperature  
Mean Temperature 74 °F 71 °F  
Max Temperature 89 °F 83 °F 98 °F (1948)
Min Temperature 58 °F 60 °F 46 °F (1942)
Degree Days  
Heating Degree Days 0 0  
Month to date heating degree days 0 0  
Since 1 June heating degree days 5 25  
Since 1 July heating degree days 3 1  
Cooling Degree Days 9 7  
Month to date cooling degree days 181 223  
Year to date cooling degree days 799 766  
Since 1 June cooling degree days 718 709  
Growing Degree Days 23 (Base 50)    
Moisture  
Dew Point 62 °F    
Average Humidity 69    
Maximum Humidity 93    
Minimum Humidity 44    
Precipitation  
Precipitation 0.00 in 0.09 in 2.15 in (1936)
Month to date precipitation 2.23 2.69  
Year to date precipitation 24.47 25.85  
Sea Level Pressure  
Sea Level Pressure 30.02 in    
Wind  
Wind Speed 3 mph (South)    
Max Wind Speed 10 mph    
Max Gust Speed 14 mph    
Visibility 9 miles    
Events      
T = Trace of Precipitation, MM = Missing Value Source: NWS Daily Summary

Daily Weather History Graph

Daily Weather History Graph

Search for Another Location

Airport or City:

Trip Planner

Search our weather history database for the weather conditions in past years. The results will help you decide how hot, cold, wet, or windy it might be!

Date:

Astronomy

Aug. 27, 2014 Rise Set
Actual Time 6:35 AM EDT 7:50 PM EDT
Civil Twilight 6:07 AM EDT 8:18 PM EDT
Nautical Twilight 5:34 AM EDT 8:51 PM EDT
Astronomical Twilight 4:59 AM EDT 9:26 PM EDT
Moon 8:29 AM EDT (8/27) 8:42 PM EDT (8/27)
Length of Visible Light 14h 10m
Length of Day
13h 14m
Waxing Crescent, 4% of the Moon is Illuminated
Aug 27
Waxing Crescent
Sep 2
First Quarter
Sep 8
Full
Sep 15
Last Quarter
Sep 24
New

Hourly Weather History & Observations

Time (EDT) Temp. Heat Index Dew Point Humidity Pressure Visibility Wind Dir Wind Speed Gust Speed Precip Events Conditions
12:53 AM 62.1 °F - 57.9 °F 86% 30.09 in 10.0 mi Calm Calm - N/A   Clear
1:53 AM 62.1 °F - 57.9 °F 86% 30.08 in 8.0 mi Calm Calm - N/A   Clear
2:53 AM 61.0 °F - 57.0 °F 87% 30.07 in 10.0 mi Calm Calm - N/A   Clear
3:53 AM 59.0 °F - 55.9 °F 90% 30.06 in 5.0 mi SSE 3.5 mph - N/A   Clear
4:53 AM 59.0 °F - 55.0 °F 87% 30.08 in 7.0 mi Calm Calm - N/A   Clear
5:53 AM 59.0 °F - 55.9 °F 90% 30.08 in 4.0 mi SSE 3.5 mph - N/A   Clear
6:53 AM 57.9 °F - 55.0 °F 90% 30.09 in 4.0 mi Calm Calm - N/A   Clear
7:53 AM 62.1 °F - 57.9 °F 86% 30.10 in 7.0 mi Calm Calm - N/A   Clear
8:53 AM 66.9 °F - 60.1 °F 79% 30.10 in 10.0 mi South 3.5 mph - N/A   Clear
9:53 AM 73.0 °F - 60.1 °F 64% 30.09 in 10.0 mi Variable 3.5 mph - N/A   Clear
10:53 AM 75.0 °F - 61.0 °F 62% 30.09 in 10.0 mi Calm Calm - N/A   Mostly Cloudy
11:53 AM 81.0 °F 82.2 °F 63.0 °F 54% 30.07 in 10.0 mi Variable 3.5 mph - N/A   Mostly Cloudy
12:53 PM 84.9 °F 85.4 °F 62.1 °F 46% 30.05 in 10.0 mi Variable 3.5 mph - N/A   Scattered Clouds
1:53 PM 86.0 °F 86.8 °F 63.0 °F 46% 30.01 in 10.0 mi Calm Calm - N/A   Mostly Cloudy
2:53 PM 88.0 °F 89.3 °F 64.0 °F 45% 29.99 in 10.0 mi Calm Calm - N/A   Clear
3:53 PM 89.1 °F 90.3 °F 64.0 °F 43% 29.96 in 10.0 mi Variable 4.6 mph - N/A   Clear
4:53 PM 89.1 °F 91.3 °F 66.0 °F 46% 29.95 in 10.0 mi South 5.8 mph - N/A   Partly Cloudy
5:53 PM 86.0 °F 88.8 °F 66.9 °F 53% 29.94 in 10.0 mi SSE 8.1 mph - N/A   Partly Cloudy
6:53 PM 82.9 °F 85.8 °F 68.0 °F 60% 29.94 in 10.0 mi South 4.6 mph - N/A   Mostly Cloudy
7:53 PM 81.0 °F 83.3 °F 66.9 °F 62% 29.93 in 10.0 mi South 3.5 mph - N/A   Clear
8:53 PM 78.1 °F - 68.0 °F 71% 29.94 in 9.0 mi Calm Calm - N/A   Clear
9:53 PM 77.0 °F - 68.0 °F 74% 29.94 in 8.0 mi SSW 4.6 mph - N/A   Clear
10:53 PM 81.0 °F 83.0 °F 66.0 °F 60% 29.94 in 10.0 mi WNW 9.2 mph - N/A   Clear
11:53 PM 80.1 °F 82.1 °F 66.0 °F 62% 29.95 in 10.0 mi NW 6.9 mph - N/A   Clear